Dewpoint
8 10 11 12 11 10 10 8 5 5 7 7 6 4 -1 -4 -5 -7 -10 -10 -14 -17 -16 -13 -12 -12 -13 -8 1 3 7 8 9 10 10 8 7 6 6 4 4 4 6
7 10 11 11 12 11 11 6 5 8 8 7 5 -2 -6 -7 -11 -10 -12 -16 -14 -11 -9 -8 -8 -7 -10 1 6 6 5 7 8 9 8 7 3 2 2 0 1 1 2
6 9 12 12 11 11 9 6 8 9 8 6 -1 -7 -9 -12 -10 -13 -14 -11 -9 -8 -8 -10 -10 -9 -8 1 3 3 5 8 7 7 6 6 0 -2 -2 -2 -2 -0 1
5 10 12 12 12 11 7 8 9 9 8 0 -5 -8 -12 -10 -12 -12 -9 -8 -8 -9 -10 -10 -10 -10 -3 3 2 2 5 6 6 5 2 -3 -5 -5 -4 -3 -1 1 2
6 10 11 10 11 9 7 10 10 9 4 -4 -6 -12 -11 -11 -11 -8 -7 -7 -8 -9 -7 -5 -4 -5 1 2 4 5 6 5 5 3 2 2 2 -2 -3 -3 -4 -5 -3
7 9 12 11 9 7 10 10 10 6 -2 -5 -10 -10 -9 -10 -8 -7 -7 -8 -8 -6 -4 -3 -3 -2 -1 1 4 4 4 5 5 5 4 4 3 0 -0 -1 -4 -4 -2
12 12 12 10 8 10 11 10 8 -1 -5 -8 -11 -8 -9 -8 -7 -7 -7 -7 -6 -4 -3 -3 -2 -2 -2 -2 1 4 4 4 6 5 4 3 3 2 2 1 -0 -1 -4
12 12 11 10 11 11 10 8 2 -3 -5 -10 -7 -8 -7 -6 -6 -7 -7 -6 -4 -3 -2 -2 -2 -2 1 2 -0 3 3 2 3 3 3 3 3 2 2 2 1 -1 -2
11 11 11 11 9 10 9 3 -2 -3 -8 -7 -7 -6 -6 -6 -6 -6 -6 -5 -4 -3 -2 -2 -1 -1 3 4 3 3 4 4 3 3 4 3 4 3 3 3 1 1 -1
12 12 9 6 8 10 5 0 -4 -4 -8 -6 -5 -5 -5 -5 -5 -5 -5 -4 -3 -2 -1 0 1 2 5 4 4 4 4 4 4 4 3 4 4 4 3 3 2 1 -3
9 8 8 11 9 6 0 -2 -2 -6 -5 -4 -4 -4 -3 -2 -1 3 3 1 -0 2 6 6 6 6 6 6 5 5 5 5 4 3 3 4 3 3 3 3 2 -1 -4
9 9 7 10 7 4 1 -3 -4 -6 -2 -3 -2 0 5 5 7 8 8 6 7 7 7 7 7 6 7 7 6 5 5 4 4 3 3 3 2 2 2 1 1 -3 -3
8 9 8 8 7 2 -1 -1 -3 -1 5 6 6 7 6 6 7 10 9 8 8 8 7 7 7 7 7 6 6 5 5 4 3 3 2 1 1 0 0 -0 -2 -3 -2
10 10 9 8 2 -1 -1 -2 -1 1 8 8 10 8 8 9 9 10 9 8 8 7 7 8 7 7 7 6 5 3 2 2 0 -0 -1 -2 -3 -3 -3 -3 -3 -1 -1
10 10 9 6 1 0 -1 3 5 5 6 7 9 10 10 10 10 8 8 8 8 7 7 7 7 7 6 3 -2 -4 -4 -5 -4 -2 -3 -4 -5 -4 -4 -1 -1 -1 -1
11 10 10 9 7 6 6 7 7 9 6 5 8 9 9 8 8 8 7 8 8 8 8 7 7 3 -3 -4 -7 -13 -14 -11 -7 -6 -7 -8 -5 -6 -5 -2 -2 -2 -1
11 10 9 9 8 7 8 8 8 9 9 9 9 8 9 9 9 9 8 8 8 8 8 6 -3 -3 -6 -12 -15 -15 -13 -10 -8 -8 -9 -9 -6 -6 -1 -1 -2 -2 -3
10 10 9 8 8 8 8 8 9 9 9 9 8 7 6 6 7 7 7 8 8 5 -2 -4 -4 -7 -10 -11 -14 -13 -11 -10 -10 -5 -5 -5 -4 -3 -2 -3 -3 -4 -4
6 5 8 7 7 9 9 9 9 9 9 7 5 4 4 6 6 6 4 0 -3 -3 -3 -4 -6 -9 -9 -9 -6 -5 -6 -11 -7 -5 -5 -4 -4 -3 -4 -4 -5 -5 -5
5 -2 1 5 8 10 9 8 8 8 6 4 4 4 4 2 -1 -4 -4 -3 -2 -2 -2 -3 -6 -7 -7 -7 -7 -8 -14 -8 -4 -5 -6 -4 -4 -5 -5 -6 -6 -7 -7
7 2 0 2 6 7 9 8 7 6 5 6 6 5 1 -2 -3 -3 -2 -2 -1 -1 -1 -3 -7 -10 -13 -11 -9 -12 -9 -6 -9 -5 -3 -8 -8 -6 -7 -7 -7 -7 -7
8 7 6 6 6 8 8 6 6 6 8 8 6 2 -1 -2 -2 -2 -1 -1 -0 -1 -3 -6 -7 -9 -9 -8 -7 -6 -5 -9 -4 -7 -5 -5 -5 -5 -6 -7 -7 -7 -7
8 8 9 9 8 8 7 7 7 8 7 6 3 0 -1 0 0 1 1 0 -1 -2 -3 -5 -4 -4 -3 -5 -5 -4 -4 -5 -4 -5 -4 -4 -4 -4 -5 -6 -8 -9 -9
8 9 9 10 10 9 9 8 8 6 5 5 4 -0 2 2 3 2 1 -0 -1 -2 -3 -3 -2 -2 -2 -6 -7 -9 -7 -4 -3 -3 -3 -4 -5 -4 -5 -7 -9 -10 -7
8 9 10 11 11 10 9 9 7 6 5 3 1 3 3 4 3 1 1 0 -1 -2 -2 -2 -2 -2 -7 -13 -12 -10 -7 -5 -3 -3 -2 -3 -4 -4 -5 -7 -8 -10 -10
9 9 11 11 11 11 10 9 8 3 1 3 3 3 4 4 2 2 2 1 -1 -2 -2 -2 -2 -8 -17 -17 -12 -11 -8 -4 -2 -4 -4 -3 -4 -5 -7 -5 -6 -9 -9
Wind_Speed
30 29 30 32 28 26 24 23 22 21 19 18 16 14 12 14 14 15 16 17 18 19 19 19 19 20 20 19 20 20 18 16 16 17 17 19 18 17 15 14 14 14 14
33 31 32 32 29 26 24 23 22 19 18 16 15 13 14 15 16 18 19 19 20 19 19 19 19 19 20 20 19 17 14 14 14 18 20 19 19 18 16 15 14 14 12
33 32 33 32 31 26 25 24 22 19 17 15 14 15 16 16 18 19 20 20 20 20 21 22 22 22 22 20 19 19 18 19 18 17 19 20 19 14 13 13 13 13 13
33 33 35 33 30 28 25 23 21 18 16 14 14 16 17 18 19 19 19 19 20 22 24 25 26 25 24 21 22 22 23 21 19 18 19 21 20 18 15 13 13 13 12
32 32 34 33 32 28 25 21 20 18 15 14 15 18 18 18 19 18 19 19 21 24 25 26 26 26 23 21 24 24 20 19 17 16 17 18 20 20 18 17 15 13 12
31 33 31 35 33 29 24 21 18 16 15 15 16 18 19 19 18 17 19 20 22 23 23 24 23 23 22 18 20 20 18 16 14 15 15 17 17 19 20 20 17 15 13
30 32 31 30 28 25 23 19 16 14 15 16 17 18 18 18 17 18 19 20 20 20 20 20 19 18 17 16 14 14 16 15 13 14 15 16 17 17 18 19 19 17 14
27 27 25 24 23 20 19 16 16 15 16 17 18 18 18 18 18 17 17 18 17 16 16 15 13 13 13 12 10 9 12 11 10 11 13 15 16 17 18 19 19 17 17
30 29 25 21 21 17 15 15 15 17 17 18 18 18 18 18 17 16 15 14 13 12 12 10 8 9 8 8 8 8 8 9 11 11 12 15 18 18 19 20 20 20 20
31 28 28 29 18 18 17 15 16 17 17 18 18 19 19 19 17 14 13 12 11 10 9 7 7 7 5 5 8 6 5 7 10 11 13 14 17 21 22 23 22 23 20
30 30 21 20 19 18 17 17 17 17 18 19 19 19 19 17 15 14 12 11 10 11 10 8 6 5 4 2 6 7 7 10 11 12 12 15 20 21 23 24 24 23 20
26 24 28 21 19 21 19 19 19 19 20 20 19 18 17 14 12 11 12 12 12 10 7 5 2 1 3 5 8 10 14 13 13 13 15 17 17 19 23 23 23 26 20
30 28 27 23 19 18 20 20 20 21 22 20 17 15 14 12 10 10 11 10 9 7 5 5 3 4 5 7 9 11 12 13 12 15 16 17 15 17 19 22 25 22 20
24 23 19 21 19 19 20 20 21 22 20 18 16 13 11 11 10 10 10 7 9 7 5 5 5 6 6 9 12 11 12 13 11 11 12 12 13 16 16 19 21 19 20
25 24 20 20 21 22 22 21 21 20 18 17 14 12 10 7 7 7 6 6 6 6 6 7 8 11 12 13 13 13 13 14 14 14 14 16 15 15 16 16 15 15 18
25 26 24 21 23 23 23 21 20 18 16 15 13 12 11 11 10 8 7 8 9 9 10 11 12 13 13 14 13 11 11 12 13 14 16 16 13 13 16 16 17 15 11
29 27 25 27 25 25 22 19 17 16 15 15 14 12 11 10 9 10 9 9 9 10 11 12 12 11 13 11 12 12 12 13 15 17 16 16 13 9 7 8 9 11 12
34 30 30 29 27 22 20 20 21 20 17 15 12 10 8 9 9 9 8 8 9 9 10 10 12 13 13 15 16 15 14 13 12 13 13 13 8 3 2 2 5 7 9
30 32 35 32 31 26 26 24 20 18 16 12 11 9 8 9 9 8 7 7 7 7 8 11 13 15 18 18 17 16 18 19 5 8 9 6 4 3 2 4 8 10 10
31 35 34 35 31 28 25 22 21 22 17 12 10 7 8 10 10 8 7 6 6 7 10 12 14 15 17 19 20 22 23 6 2 7 12 8 12 15 18 20 20 21 16
31 29 30 30 29 26 26 24 24 22 17 14 12 11 13 11 9 7 5 5 8 9 10 12 14 16 19 22 24 27 16 2 21 10 8 18 21 23 23 23 20 15 13
31 29 26 26 24 25 25 24 22 19 16 13 13 15 13 10 7 5 6 9 10 10 12 15 16 18 20 22 23 24 12 22 4 27 13 25 16 14 23 21 20 18 18
35 30 25 25 24 25 25 24 21 18 15 18 18 16 13 11 8 6 7 10 13 15 16 16 18 20 22 24 23 20 12 8 31 16 29 15 16 27 23 18 20 20 19
36 31 26 25 23 22 26 25 22 22 24 21 16 14 13 12 9 8 11 11 14 17 19 20 20 21 24 25 25 23 21 21 24 23 17 27 21 24 22 21 20 15 13
36 33 30 27 24 21 26 25 18 18 17 15 17 17 15 11 8 7 10 13 15 17 16 17 19 23 27 26 23 23 23 22 24 27 30 24 28 20 18 22 20 18 18
28 27 30 25 21 22 28 23 19 17 18 20 22 21 17 14 11 13 13 15 15 16 16 19 23 26 27 25 25 23 22 21 23 25 30 30 30 26 27 21 20 18 22
Wind_Direction
168 165 161 157 157 155 151 146 142 137 132 127 122 115 109 107 105 104 102 97 91 87 82 78 77 76 75 76 76 78 73 65 61 63 56 54 50 48 44 38 35 39 40
164 165 163 160 159 158 153 148 143 136 132 126 118 110 108 107 105 103 99 95 89 82 79 75 74 77 81 83 75 70 62 58 60 63 57 54 43 34 38 34 33 36 37
164 164 164 160 158 160 153 151 141 138 133 123 116 113 111 108 105 101 97 91 88 85 82 80 78 80 87 84 58 52 59 70 57 54 42 30 25 28 32 35 30 32 34
163 162 163 160 157 157 154 150 141 140 131 124 121 116 112 110 105 102 96 93 92 90 87 84 81 82 91 76 59 64 69 59 54 51 46 37 37 35 34 32 31 27 28
163 163 164 159 158 156 152 147 143 136 130 127 125 118 115 111 105 100 98 99 97 94 91 88 84 85 94 79 65 66 67 60 54 43 36 34 30 32 27 28 29 27 21
170 166 163 157 155 153 149 148 145 137 134 128 125 118 117 112 107 105 105 104 99 95 91 87 85 87 91 95 67 66 64 58 50 40 31 24 24 28 25 22 20 16 14
166 161 159 151 148 149 143 147 139 137 133 132 125 122 118 112 109 109 107 103 98 94 91 86 83 81 82 84 90 55 56 54 57 35 19 12 12 12 4 5 5 3 5
157 145 149 147 143 140 141 145 147 139 136 133 129 124 120 116 113 110 106 101 99 95 88 81 77 73 73 73 79 65 55 44 22 20 13 1 2 353 350 352 349 349 344
138 148 144 146 135 146 156 153 147 142 139 137 129 125 120 116 114 110 105 103 100 94 87 86 81 77 81 77 59 58 41 25 2 357 3 358 354 343 339 337 336 337 334
146 144 133 132 154 164 156 154 147 144 139 135 131 127 122 118 114 110 108 104 96 86 79 75 70 71 68 47 25 19 7 349 338 332 334 337 337 333 331 329 331 332 332
146 137 137 166 164 165 159 153 149 142 139 137 133 126 124 123 120 115 107 108 107 103 94 78 73 77 48 1 346 341 333 321 333 326 329 325 326 322 319 325 330 333 334
143 151 156 163 176 169 163 157 154 147 146 142 134 130 126 126 117 106 100 109 103 116 123 123 133 24 291 297 314 323 324 326 335 330 323 319 325 319 320 323 326 328 328
145 158 169 179 180 174 162 155 152 148 144 139 137 139 145 144 140 115 123 134 140 154 179 189 229 253 284 308 317 319 318 316 313 312 313 315 318 324 326 321 323 325 325
161 170 175 185 175 170 164 160 156 154 152 147 158 159 156 157 148 141 158 170 175 176 215 218 239 250 275 303 311 312 308 309 315 316 315 310 316 326 327 319 324 321 323
170 168 167 161 165 167 164 161 157 160 165 167 168 173 176 178 189 188 191 206 189 194 218 232 257 277 288 301 313 313 304 300 299 303 305 308 315 322 324 311 314 320 325
179 170 176 169 163 164 168 167 166 171 173 181 185 196 195 204 213 214 229 225 217 225 246 267 283 297 315 313 310 308 302 302 309 310 306 303 303 331 331 312 314 319 325
179 180 181 178 181 179 177 180 182 185 188 192 201 206 209 213 225 226 224 224 229 244 268 279 300 311 310 318 335 334 321 322 323 318 312 297 291 328 304 310 326 331 326
184 188 186 183 183 187 185 185 191 192 199 206 213 213 207 202 212 220 228 237 246 255 271 296 305 320 327 337 341 337 337 341 328 313 323 340 338 274 177 350 333 334 337
198 194 194 191 189 191 192 194 195 200 207 214 217 207 199 194 204 214 219 234 248 274 291 307 319 330 338 343 350 343 338 345 313 291 310 324 26 55 351 325 328 332 323
185 188 189 189 191 193 197 204 210 211 208 214 215 220 203 201 202 209 220 238 270 299 313 317 329 336 343 344 339 332 335 360 273 300 303 303 302 309 313 314 313 314 312
189 191 194 193 197 199 201 204 204 204 216 234 242 231 207 206 202 216 252 305 312 310 309 328 333 338 337 333 332 333 348 286 318 288 280 303 304 308 315 318 320 312 306
198 195 196 201 204 205 210 209 211 226 239 237 228 203 203 209 224 253 308 315 314 314 318 320 325 329 335 333 333 338 330 325 109 315 338 320 314 300 318 308 304 306 303
202 204 205 206 209 211 210 212 224 227 218 200 199 202 206 221 226 260 305 319 316 306 314 318 323 328 328 329 326 329 331 305 317 319 323 334 309 309 313 302 303 300 297
210 212 215 216 216 213 212 215 222 217 208 203 211 209 223 234 248 293 311 311 305 307 314 315 319 319 321 320 318 317 313 310 312 311 312 314 315 312 304 303 309 302 289
209 212 217 211 210 216 211 209 209 211 215 206 204 220 226 226 249 271 281 285 287 293 295 302 305 309 314 314 316 315 311 309 308 308 311 314 310 311 301 303 298 298 297
207 212 211 214 220 216 205 210 211 218 210 214 217 225 231 223 227 239 247 261 272 279 284 292 300 306 306 306 307 305 303 302 303 307 308 306 309 308 307 299 291 296 300
Height
1526 1528 1532 1535 1541 1544 1546 1548 1551 1551 1552 1553 1553 1555 1556 1557 1558 1559 1560 1562 1563 1563 1563 1564 1565 1565 1564 1564 1563 1564 1564 1564 1564 1565 1563 1564 1563 1562 1562 1562 1562 1560 1560
1524 1528 1531 1534 1539 1544 1546 1548 1550 1551 1551 1553 1554 1555 1557 1558 1559 1560 1561 1562 1563 1564 1564 1565 1565 1566 1566 1566 1566 1565 1566 1566 1566 1566 1565 1565 1565 1564 1563 1565 1564 1563 1562
1525 1528 1532 1533 1534 1544 1544 1549 1549 1550 1553 1554 1556 1556 1558 1559 1560 1562 1562 1563 1564 1565 1566 1566 1567 1568 1568 1568 1569 1568 1568 1568 1568 1569 1567 1567 1565 1566 1565 1565 1566 1564 1564
1527 1529 1531 1534 1538 1542 1547 1550 1548 1552 1553 1554 1557 1557 1559 1561 1561 1563 1563 1564 1565 1567 1567 1569 1570 1570 1570 1571 1571 1571 1571 1571 1572 1571 1570 1570 1569 1569 1567 1567 1566 1566 1565
1529 1530 1532 1531 1537 1543 1547 1550 1551 1552 1554 1556 1559 1557 1559 1562 1563 1566 1565 1567 1568 1567 1569 1570 1571 1571 1574 1574 1574 1573 1573 1572 1574 1573 1572 1573 1572 1570 1571 1568 1568 1567 1567
1531 1531 1536 1532 1537 1542 1546 1550 1553 1553 1556 1558 1559 1559 1560 1563 1565 1567 1567 1568 1569 1570 1572 1571 1573 1575 1576 1577 1576 1575 1573 1575 1577 1575 1575 1575 1574 1573 1571 1570 1570 1568 1567
1534 1534 1538 1538 1541 1545 1545 1551 1552 1556 1557 1558 1559 1561 1562 1563 1567 1569 1569 1571 1571 1573 1574 1573 1576 1576 1577 1579 1578 1577 1576 1576 1577 1577 1578 1576 1575 1573 1572 1571 1569 1569 1568
1534 1532 1539 1540 1545 1548 1549 1552 1554 1556 1558 1559 1560 1561 1562 1564 1568 1571 1571 1571 1573 1575 1576 1577 1577 1578 1579 1580 1579 1578 1577 1580 1578 1576 1577 1577 1575 1573 1573 1570 1570 1568 1568
1532 1533 1538 1544 1548 1553 1554 1555 1555 1557 1558 1560 1560 1561 1564 1566 1569 1572 1572 1573 1575 1577 1577 1576 1579 1578 1580 1580 1581 1579 1579 1581 1579 1578 1576 1576 1575 1572 1571 1569 1568 1566 1567
1536 1539 1541 1549 1550 1552 1554 1556 1557 1559 1559 1560 1561 1562 1564 1567 1570 1573 1573 1575 1577 1578 1580 1578 1580 1579 1581 1580 1581 1580 1581 1580 1579 1578 1577 1576 1574 1572 1569 1568 1566 1565 1564
1538 1541 1543 1546 1553 1554 1555 1557 1560 1559 1560 1560 1562 1564 1566 1568 1571 1572 1573 1575 1576 1577 1579 1578 1581 1581 1581 1582 1579 1580 1580 1580 1577 1575 1575 1574 1573 1571 1567 1566 1564 1564 1563
1537 1539 1544 1549 1553 1552 1557 1558 1560 1559 1560 1561 1562 1565 1568 1570 1572 1574 1574 1576 1578 1578 1578 1578 1580 1578 1581 1580 1579 1578 1578 1577 1577 1574 1572 1572 1569 1569 1566 1564 1563 1562 1561
1540 1544 1546 1549 1551 1554 1556 1558 1560 1560 1562 1562 1563 1567 1568 1571 1573 1572 1575 1576 1576 1576 1577 1576 1578 1579 1580 1580 1576 1576 1577 1575 1574 1572 1571 1570 1568 1566 1563 1562 1559 1559 1560
1540 1544 1547 1549 1551 1555 1557 1559 1560 1562 1562 1561 1567 1566 1569 1570 1570 1573 1574 1574 1575 1575 1577 1576 1577 1579 1579 1578 1576 1575 1574 1572 1572 1570 1569 1568 1565 1564 1562 1560 1556 1556 1556
1540 1543 1548 1551 1553 1554 1555 1558 1561 1562 1561 1564 1566 1567 1569 1568 1572 1573 1573 1574 1574 1574 1576 1576 1577 1579 1578 1576 1574 1573 1572 1569 1568 1568 1567 1564 1562 1561 1560 1558 1555 1554 1552
1541 1543 1548 1550 1553 1554 1556 1559 1561 1562 1563 1564 1567 1569 1568 1570 1572 1572 1573 1573 1572 1573 1575 1576 1575 1575 1574 1573 1571 1570 1569 1567 1566 1564 1562 1560 1559 1559 1557 1556 1554 1552 1550
1542 1543 1547 1550 1553 1556 1557 1558 1560 1561 1563 1564 1568 1567 1568 1569 1569 1570 1572 1570 1570 1571 1574 1575 1573 1572 1572 1572 1568 1567 1566 1565 1564 1560 1558 1556 1556 1556 1555 1554 1553 1551 1549
1541 1543 1547 1548 1552 1554 1556 1558 1561 1561 1563 1563 1566 1567 1567 1569 1568 1569 1569 1568 1570 1571 1572 1571 1571 1570 1569 1566 1564 1563 1563 1562 1560 1558 1556 1554 1553 1552 1552 1551 1549 1548 1547
1539 1540 1544 1548 1550 1553 1556 1558 1560 1559 1561 1561 1564 1566 1567 1567 1568 1567 1567 1568 1569 1570 1569 1568 1568 1567 1564 1561 1560 1559 1559 1558 1556 1555 1556 1555 1553 1552 1551 1549 1547 1546 1545
1537 1539 1541 1545 1548 1551 1554 1555 1557 1559 1559 1560 1563 1563 1564 1566 1566 1567 1566 1567 1567 1567 1566 1566 1565 1563 1560 1558 1558 1557 1555 1554 1554 1554 1554 1553 1552 1549 1548 1546 1544 1542 1540
1534 1536 1540 1542 1546 1547 1549 1552 1555 1556 1558 1559 1560 1562 1564 1564 1565 1566 1566 1565 1565 1565 1565 1563 1561 1560 1558 1556 1555 1553 1551 1552 1551 1549 1550 1550 1548 1546 1544 1543 1540 1539 1537
1531 1535 1538 1541 1543 1545 1549 1551 1553 1555 1556 1557 1559 1561 1562 1563 1563 1564 1563 1563 1563 1562 1562 1561 1559 1558 1557 1555 1553 1550 1548 1547 1546 1547 1545 1544 1543 1542 1541 1539 1537 1535 1534
1530 1533 1536 1537 1540 1544 1547 1549 1550 1551 1553 1554 1556 1558 1559 1560 1561 1561 1561 1561 1561 1560 1560 1558 1557 1555 1554 1553 1551 1551 1547 1544 1542 1540 1540 1539 1539 1538 1536 1534 1533 1530 1529
1525 1529 1532 1535 1539 1542 1544 1546 1547 1548 1548 1551 1554 1556 1557 1558 1558 1558 1558 1558 1557 1557 1557 1556 1555 1553 1551 1549 1548 1547 1546 1543 1540 1533 1534 1534 1533 1532 1531 1529 1527 1526 1524
1520 1524 1528 1533 1537 1540 1542 1544 1545 1546 1548 1551 1553 1554 1554 1555 1555 1555 1555 1555 1554 1554 1553 1552 1551 1549 1548 1546 1544 1541 1540 1538 1537 1533 1526 1527 1527 1527 1526 1524 1523 1522 1520
1519 1523 1528 1530 1533 1536 1538 1540 1542 1544 1546 1549 1549 1550 1551 1551 1551 1551 1552 1553 1552 1552 1551 1550 1549 1546 1544 1542 1540 1537 1535 1533 1531 1530 1525 1523 1520 1520 1520 1519 1518 1516 1515